Madison, WI

7:24 AM CST on December 10, 2019 (GMT -0600)
Dane County Regional-Truax

Weather History for KMSN - July, 2019

Change the Weather History Date:

Monday, July 22, 2019

  Actual Average Record
Temperature  
Mean Temperature 70 °F 71 °F  
Max Temperature 77 °F 82 °F 100 °F (1955)
Min Temperature 62 °F 61 °F 47 °F (1947)
Degree Days  
Heating Degree Days 0 0  
Month to date heating degree days 0 0  
Since 1 June heating degree days 42 60  
Since 1 July heating degree days 0 0  
Cooling Degree Days 5 7  
Month to date cooling degree days 246 152  
Year to date cooling degree days 364 302  
Since 1 June cooling degree days 344 272  
Growing Degree Days 18 (Base 50)    
Moisture  
Dew Point 54 °F    
Average Humidity 63    
Maximum Humidity 84    
Minimum Humidity 41    
Precipitation  
Precipitation 0.00 in 0.13 in 3.61 in (2010)
Month to date precipitation 5.56 3.04  
Year to date precipitation 26.53 19.41  
Snow  
Snow 0.00 in 0.00 in 0.00 in (2018)
Month to date snowfall 0.0 0.0  
Since 1 June snowfall 0.0 0.0  
Since 1 July snowfall 0.0 0.0  
Snow Depth 0.00 in    
Sea Level Pressure  
Sea Level Pressure 30.09 in    
Wind  
Wind Speed 8 mph (North)    
Max Wind Speed 17 mph    
Max Gust Speed 29 mph    
Visibility 10 miles    
Events      
T = Trace of Precipitation, MM = Missing Value Source: NWS Daily Summary

Daily Weather History Graph

Daily Weather History Graph

Search for Another Location

Airport or City:

Astronomy

Jul. 22, 2019 Rise Set
Actual Time 5:37 AM CDT 8:29 PM CDT
Civil Twilight 5:04 AM CDT 9:02 PM CDT
Nautical Twilight 4:21 AM CDT 9:45 PM CDT
Astronomical Twilight 3:31 AM CDT 10:34 PM CDT
Moon 11:41 PM CDT (7/22) 11:01 AM CDT (7/22)
Length of Visible Light 15h 58m
Length of Day
14h 51m
Waning Gibbous, 72% of the Moon is Illuminated
Jul 22
Waning Gibbous
Jul 24
Last Quarter
Jul 31
New
Aug 7
First Quarter
Aug 15
Full

Hourly Weather History & Observations

Time (CDT) Temp. Dew Point Humidity Pressure Visibility Wind Dir Wind Speed Gust Speed Precip Events Conditions
12:53 AM 68.0 °F 57.9 °F 70% 30.02 in 10.0 mi East 9.2 mph - N/A   Clear
1:53 AM 66.0 °F 59.0 °F 78% 30.03 in 10.0 mi ENE 4.6 mph - N/A   Partly Cloudy
2:53 AM 66.0 °F 59.0 °F 78% 30.03 in 10.0 mi NE 8.1 mph - N/A   Clear
3:53 AM 64.9 °F 57.9 °F 78% 30.03 in 10.0 mi NNE 6.9 mph - N/A   Partly Cloudy
4:53 AM 64.9 °F 57.0 °F 75% 30.05 in 10.0 mi NNE 6.9 mph - N/A   Overcast
5:53 AM 62.1 °F 57.9 °F 86% 30.07 in 10.0 mi North 6.9 mph - N/A   Mostly Cloudy
6:53 AM 64.9 °F 57.9 °F 78% 30.09 in 10.0 mi NNE 6.9 mph - N/A   Partly Cloudy
7:53 AM 66.9 °F 55.9 °F 68% 30.11 in 10.0 mi NNE 10.4 mph - N/A   Partly Cloudy
8:53 AM 69.1 °F 54.0 °F 58% 30.12 in 10.0 mi NNE 11.5 mph - N/A   Partly Cloudy
9:53 AM 70.0 °F 52.0 °F 53% 30.12 in 10.0 mi NNE 11.5 mph - N/A   Partly Cloudy
10:53 AM 72.0 °F 53.1 °F 51% 30.12 in 10.0 mi NNE 12.7 mph 19.6 mph N/A   Partly Cloudy
11:53 AM 72.0 °F 52.0 °F 49% 30.12 in 10.0 mi North 13.8 mph - N/A   Partly Cloudy
12:53 PM 73.0 °F 50.0 °F 44% 30.11 in 10.0 mi North 13.8 mph 24.2 mph N/A   Scattered Clouds
1:53 PM 75.0 °F 52.0 °F 44% 30.10 in 10.0 mi North 10.4 mph 21.9 mph N/A   Mostly Cloudy
2:53 PM 75.9 °F 51.1 °F 42% 30.10 in 10.0 mi North 16.1 mph 25.3 mph N/A   Mostly Cloudy
3:53 PM 75.9 °F 50.0 °F 40% 30.10 in 10.0 mi NNW 13.8 mph 19.6 mph N/A   Scattered Clouds
4:53 PM 75.9 °F 51.1 °F 42% 30.10 in 10.0 mi NNW 11.5 mph 19.6 mph N/A   Partly Cloudy
5:53 PM 75.0 °F 50.0 °F 41% 30.09 in 10.0 mi North 8.1 mph 20.7 mph N/A   Partly Cloudy
6:53 PM 75.0 °F 51.1 °F 43% 30.09 in 10.0 mi NNW 6.9 mph - N/A   Partly Cloudy
7:53 PM 71.1 °F 55.9 °F 59% 30.10 in 10.0 mi Calm Calm - N/A   Clear
8:53 PM 64.9 °F 57.0 °F 75% 30.10 in 10.0 mi WNW 3.5 mph - N/A   Clear
9:53 PM 66.9 °F 54.0 °F 63% 30.12 in 10.0 mi WNW 4.6 mph - N/A   Clear
10:53 PM 66.0 °F 54.0 °F 65% 30.12 in 10.0 mi WNW 5.8 mph - N/A   Clear
11:53 PM 64.9 °F 54.0 °F 68% 30.12 in 10.0 mi NW 4.6 mph - N/A   Clear